ContactaLinksHome
    
DADES METEOROLÒGIQUES DE LES ÚLTIMES 24 HORES
 

Taire  Temperatura de l'aire  (ºC)
HumitatR  Humitat relativa de l'aire (%)
Pluja  Litres de pluja per metre cuadrat caiguts en 10 minuts (l/m²)
VelVent  Velocitat mitjana del vent (m/s)
DirVent  Direcció del vent  (º)
RadSolar  Intensitat de Radiació solar (w/m²)
PressAtm  Pressió atmosfèrica (mb)
  ***Dades sense verificar
DataTaireHumitatRPlujaVelVentDirVentRadSolarPressAtm
24/01/2018 5:00:0017.9720,03.23251941028
24/01/2018 4:50:0019.0730,03.43331921027
24/01/2018 4:40:0016.8730,02.73561841028
24/01/2018 4:30:0017.3730,01.4101841029
24/01/2018 4:20:0016.6730,01.83361991027
24/01/2018 4:10:0019.0720,02.73311931027
24/01/2018 4:00:0018.0720,02.93312001028
24/01/2018 3:50:0017.7750,03.03322061028
24/01/2018 3:40:0017.8750,02.53312071026
24/01/2018 3:30:0017.0740,02.43292041027
24/01/2018 3:20:0020.7730,02.73292071028
24/01/2018 3:10:0016.9730,02.93152041028
24/01/2018 3:00:0015.8730,03.43152051028
24/01/2018 2:50:0015.8730,04.03142101026
24/01/2018 2:40:0018.9750,03.43112021028
24/01/2018 2:30:0018.1720,04.53131971028
24/01/2018 2:20:0017.8740,04.13132011029
24/01/2018 2:10:0018.4730,03.73251941029
24/01/2018 2:00:0018.0750,03.13151931027
24/01/2018 1:50:0018.3730,02.53271871029
24/01/2018 1:40:0019.5740,02.23201881028
24/01/2018 1:30:0018.2730,01.73011851028
24/01/2018 1:20:0017.6730,01.83141931026
24/01/2018 1:10:0016.1720,01.83011901029
24/01/2018 1:00:0016.4730,01.33211951028
24/01/2018 0:50:0017.5720,01.83171971029
24/01/2018 0:40:0018.9740,02.23151961028
24/01/2018 0:30:0016.6700,01.73001911028
24/01/2018 0:20:0017.7690,01.32871861028
24/01/2018 0:10:0016.3670,01.23201851028
24/01/2018 0:00:0015.8670,01.53221821028
23/01/2018 23:50:0015.9660,02.23051851029
23/01/2018 23:40:0016.2660,01.73331771029
23/01/2018 23:30:0019.6680,01.511861030
23/01/2018 23:20:0018.3680,01.23371931030
23/01/2018 23:10:0017.8700,00.83101991029
23/01/2018 23:00:0017.1700,00.8221991029
23/01/2018 22:50:0017.2700,01.6312021029
23/01/2018 22:40:0018.7700,01.4442031028
23/01/2018 22:30:0017.3680,01.53101901029
23/01/2018 22:20:0017.7690,02.53301921028
23/01/2018 22:10:0017.8670,03.43421921028
23/01/2018 22:00:0019.3670,03.43161871029
23/01/2018 21:50:0019.2680,03.63261871029
23/01/2018 21:40:0020.1660,04.23281911029
23/01/2018 21:30:0019.4700,03.33251951028
23/01/2018 21:20:0019.7690,03.03401981028
23/01/2018 21:10:0018.5670,02.23241991028
23/01/2018 21:00:0018.8680,01.23052151028
23/01/2018 20:50:0019.0680,01.43312161028
23/01/2018 20:40:0021.7690,01.83132121029
23/01/2018 20:30:0020.4710,00.93422151028
23/01/2018 20:20:0019.4710,00.52782131028
23/01/2018 20:10:0019.9700,00.83562231029
23/01/2018 20:00:0019.2710,01.13552311028
23/01/2018 19:50:0019.6710,00.5562121028
23/01/2018 19:40:0021.9750,01.02032051027
23/01/2018 19:30:0022.9750,01.32192221031
23/01/2018 19:20:0020.1750,01.63182091027
23/01/2018 19:10:0019.8780,02.22702171028
23/01/2018 19:00:0020.2800,01.42562271029
23/01/2018 18:50:0021.1820,01.52552201028
23/01/2018 18:40:0024.4820,01.22672201031
23/01/2018 18:30:0022.1830,00.92832261028
23/01/2018 18:20:0022.0830,01.23162241029
23/01/2018 18:10:0023.7840,01.03132181029
23/01/2018 18:00:0021.1840,01.43242431030
23/01/2018 17:50:0021.7870,00.93212311028
23/01/2018 17:40:0024.8870,01.13102351029
23/01/2018 17:30:0020.3870,00.4462341027
23/01/2018 17:20:0021.6880,00.6652391027
23/01/2018 17:10:0020.6860,00.8152361028
23/01/2018 17:00:0023.4870,00.9562391029
23/01/2018 16:50:0022.5860,01.5562411027
23/01/2018 16:40:0023.2880,01.4722471026
23/01/2018 16:30:0022.9860,01.3912731027
23/01/2018 16:20:0020.4850,01.2862891027
23/01/2018 16:10:0020.4850,01.0933151027
23/01/2018 16:00:0024.4870,01.51163231026
23/01/2018 15:50:0025.6850,01.71122971028
23/01/2018 15:40:0025.9850,01.51163351029
23/01/2018 15:30:0021.9840,01.81283531026
23/01/2018 15:20:0024.2860,01.71193561027
23/01/2018 15:10:0021.5830,02.01253941027
23/01/2018 15:00:0022.7850,01.81283971027
23/01/2018 14:50:0021.0820,02.21234261026
23/01/2018 14:40:0021.5820,02.31225651025
23/01/2018 14:30:0023.2830,02.11195711026
23/01/2018 14:20:0023.6810,02.31136001026
23/01/2018 14:10:0023.3790,02.01176021024
23/01/2018 14:00:0022.7800,01.61236171023
23/01/2018 13:50:0020.5790,01.91016391025
23/01/2018 13:40:0022.6790,02.21056191027
23/01/2018 13:30:0022.3790,02.71106581027
23/01/2018 13:20:0022.3780,02.61116691026
23/01/2018 13:10:0020.3760,02.31126831025
23/01/2018 13:00:0018.5740,02.41157021026
23/01/2018 12:50:0017.8740,02.51026611026
23/01/2018 12:40:0019.2710,02.6946331025
23/01/2018 12:30:0015.9670,02.5805401026
23/01/2018 12:20:0016.3670,02.7884691027
23/01/2018 12:10:0015.2670,02.81036081027
23/01/2018 12:00:0015.2660,03.11135881027
23/01/2018 11:50:0014.9620,03.11135331026
23/01/2018 11:40:0015.4530,01.51255341026
23/01/2018 11:30:0015.6520,01.21855271026
23/01/2018 11:20:0015.5540,00.72725291026
23/01/2018 11:10:0015.0540,01.42805241026
23/01/2018 11:00:0014.7550,02.23135131026
23/01/2018 10:50:0014.5560,02.33035101026
23/01/2018 10:40:0014.3570,02.62855021027
23/01/2018 10:30:0013.9590,02.73094961027
23/01/2018 10:20:0013.8600,02.62954891027
23/01/2018 10:10:0013.3600,02.93014771027
23/01/2018 10:00:0013.3600,02.53024641027
23/01/2018 9:50:0013.5600,02.82874511026
23/01/2018 9:40:0013.8600,02.62854321026
23/01/2018 9:30:0013.6600,02.22744121026
23/01/2018 9:20:0013.6610,02.53133901026
23/01/2018 9:10:0013.1630,03.23393821026
23/01/2018 9:00:0012.7640,04.03163671026
23/01/2018 8:50:0012.7640,03.83353391026
23/01/2018 8:40:0012.6640,03.13223121027
23/01/2018 8:30:0012.6640,03.03102861025
23/01/2018 8:20:0012.4650,03.63232611026
23/01/2018 8:10:0012.0650,03.93182351026
23/01/2018 8:00:0011.6680,04.13262131026
23/01/2018 7:50:0011.8690,04.63211941024
23/01/2018 7:40:0011.8700,03.23131741025
23/01/2018 7:30:0012.4700,03.03041511025
23/01/2018 7:20:0012.8700,03.13091351026
23/01/2018 7:10:0011.5700,02.83261271026
23/01/2018 7:00:0011.3700,03.63191181025
23/01/2018 6:50:0011.4690,03.03171121025
23/01/2018 6:40:0011.8690,03.63021151025
23/01/2018 6:30:0011.5690,03.43231071026
23/01/2018 6:20:0011.7690,03.53141021025
23/01/2018 6:10:0012.0680,01.92881011025
23/01/2018 6:00:0012.2660,01.72741021024
23/01/2018 5:50:0012.4670,01.43051021024
23/01/2018 5:40:0012.5680,01.43171061025
23/01/2018 5:30:0012.6680,01.7651131025
23/01/2018 5:20:0012.5670,01.727911025
23/01/2018 5:10:0012.1680,03.720901025

ÚLTIMES FOTOS WEBCAM
Imatges del Pont
ÚLTIMES DADES

24/01/2018  
6:00h Local  (5:00 GMT)
 
 Velocitat mitjana del Vent
   3,2 m/s
 Direcció del Vent
   325º
 Humitat Relativa
   72 %
 Temperatura Aparent
   17,9 ºC
 Pluja Acumulada
   0,0 l/m²
      
 Temperatura de l'aigua    N/A
 Alçada d'ona    N/A
 Direcció d'ona    N/A
 Velocitat del corrent    N/A
 Direcció del corrent    N/A